Weather History for KCUT - October, 2011

Change the Weather History Date:

Friday, October 7, 2011

  Actual Average Record
Temperature  
Mean Temperature 44 °F 45 °F  
Max Temperature 53 °F 58 °F 83 °F (1975)
Min Temperature 35 °F 33 °F 9 °F (2000)
Degree Days  
Heating Degree Days 21 20  
Month to date heating degree days 48 131  
Since 1 July heating degree days 400 617  
Cooling Degree Days 0 0  
Month to date cooling degree days 0 0  
Year to date cooling degree days 267 177  
Moisture  
Dew Point 32 °F    
Average Humidity 68    
Maximum Humidity 86    
Minimum Humidity 50    
Precipitation  
Precipitation T in 0.06 in 0.48 in (1946)
Month to date precipitation 0.04 0.45  
Year to date precipitation 19.70 16.94  
Sea Level Pressure  
Sea Level Pressure 29.63 in    
Wind  
Wind Speed 14 mph (WSW)    
Max Wind Speed 28 mph    
Max Gust Speed 46 mph    
Visibility 10 miles    
Events Rain    
T = Trace of Precipitation, MM = Missing Value Source: NWS Daily Summary

Daily Weather History Graph

Daily Weather History Graph

Search for Another Location

Airport or City:

Trip Planner

Search our weather history database for the weather conditions in past years. The results will help you decide how hot, cold, wet, or windy it might be!

Date:

Astronomy

Oct. 07, 2011 Rise Set
Actual Time 6:58 AM MDT 6:25 PM MDT
Civil Twilight 6:30 AM MDT 6:53 PM MDT
Nautical Twilight 5:56 AM MDT 7:26 PM MDT
Astronomical Twilight 5:23 AM MDT 8:00 PM MDT
Moon 4:15 PM MDT (10/7) 2:42 AM MDT (10/7)
Length of Visible Light 12h 23m
Length of Day
11h 26m
Waxing Gibbous, 84% of the Moon is Illuminated
Oct 7
Waxing Gibbous
Oct 11
Full
Oct 19
Last Quarter
Oct 26
New
Nov 2
First Quarter

Hourly Weather History & Observations

Time (MDT) Temp. Windchill Dew Point Humidity Pressure Visibility Wind Dir Wind Speed Gust Speed Precip Events Conditions
12:53 AM 39.9 °F 33.4 °F 32.0 °F 73% 29.51 in 10.0 mi WSW 10.4 mph 19.6 mph N/A   Clear
1:53 AM 37.9 °F 31.5 °F 30.9 °F 76% 29.51 in 10.0 mi WSW 9.2 mph - N/A   Clear
2:53 AM 36.0 °F 29.0 °F 30.0 °F 79% 29.49 in 10.0 mi WSW 9.2 mph - N/A   Clear
3:53 AM 36.0 °F 29.0 °F 27.0 °F 70% 29.49 in 10.0 mi SW 9.2 mph 20.7 mph N/A   Partly Cloudy
4:53 AM 37.0 °F 28.5 °F 25.0 °F 62% 29.47 in 10.0 mi SW 13.8 mph 23.0 mph N/A   Mostly Cloudy
5:53 AM 37.0 °F 27.0 °F 25.0 °F 62% 29.44 in 10.0 mi SW 18.4 mph 34.5 mph N/A   Overcast
6:53 AM 37.0 °F 28.5 °F 25.0 °F 62% 29.44 in 10.0 mi SW 13.8 mph 27.6 mph N/A   Overcast
7:53 AM 39.0 °F 28.3 °F 27.0 °F 62% 29.44 in 10.0 mi SW 24.2 mph 42.6 mph N/A   Overcast
8:08 AM 39.2 °F 29.0 °F 28.4 °F 65% 29.49 in 10.0 mi SW 21.9 mph 39.1 mph 0.00 in Rain Light Rain
8:53 AM 39.9 °F 29.2 °F 28.9 °F 65% 29.47 in 10.0 mi WSW 25.3 mph 42.6 mph 0.00 in   Overcast
9:53 AM 41.0 °F 33.1 °F 30.9 °F 67% 29.53 in 10.0 mi WSW 15.0 mph 26.5 mph N/A   Overcast
10:53 AM 44.1 °F 37.1 °F 32.0 °F 63% 29.54 in 10.0 mi WSW 15.0 mph 33.4 mph N/A   Overcast
11:53 AM 46.9 °F - 34.0 °F 61% 29.57 in 10.0 mi WSW 17.3 mph 32.2 mph N/A   Overcast
12:35 PM 46.4 °F 40.7 °F 33.8 °F 62% 29.66 in 10.0 mi WSW 12.7 mph 31.1 mph N/A   Overcast
12:53 PM 48.9 °F - 33.1 °F 54% 29.59 in 10.0 mi WSW 18.4 mph 29.9 mph N/A   Overcast
1:53 PM 50.0 °F - 33.1 °F 52% 29.64 in 10.0 mi WSW 19.6 mph 31.1 mph N/A   Overcast
2:53 PM 52.0 °F - 33.1 °F 49% 29.67 in 10.0 mi WSW 13.8 mph 28.8 mph N/A   Overcast
3:53 PM 52.0 °F - 33.1 °F 49% 29.70 in 10.0 mi WSW 17.3 mph 28.8 mph N/A   Overcast
4:53 PM 52.0 °F - 34.0 °F 50% 29.73 in 10.0 mi WSW 13.8 mph 23.0 mph N/A   Overcast
5:53 PM 50.0 °F - 35.1 °F 57% 29.78 in 10.0 mi WSW 15.0 mph 25.3 mph N/A   Mostly Cloudy
6:53 PM 48.0 °F - 33.1 °F 56% 29.82 in 10.0 mi WSW 12.7 mph 20.7 mph N/A   Partly Cloudy
7:53 PM 46.0 °F 41.0 °F 33.1 °F 61% 29.84 in 10.0 mi West 10.4 mph 19.6 mph N/A   Clear
8:53 PM 44.1 °F 38.1 °F 37.0 °F 76% 29.88 in 10.0 mi West 11.5 mph 19.6 mph N/A   Clear
9:53 PM 43.0 °F 36.8 °F 37.0 °F 80% 29.88 in 10.0 mi WNW 11.5 mph - N/A   Clear
10:53 PM 41.0 °F 33.9 °F 37.0 °F 86% 29.86 in 10.0 mi WNW 12.7 mph 17.3 mph N/A   Clear
11:53 PM 39.0 °F 35.7 °F 36.0 °F 89% 29.88 in 10.0 mi WSW 4.6 mph - N/A   Clear